DateTimeUTC,F1_A11,F1_S11,BsB_S11,BsG_S11,BsR_S11,BbsB_S11,BbsG_S11,BbsR_S11,BaB_A11,BaG_A11,BaR_A11,Tu_S11,T_S11,Uu_S11,U_S11,P_S11,T1_A11
2021-07-15T07:00:00Z,00000200,20000000,,,,,,,-000.34,-000.26,-000.13,18.0,24.7,06.6,04.4,0660.5,31.0
2021-07-15T07:01:00Z,00000200,20000000,,,,,,,0000.25,0000.11,0000.22,18.0,24.7,06.6,04.4,0660.5,31.0
2021-07-15T07:02:00Z,00000200,20000000,,,,,,,-000.08,0000.10,0000.00,17.9,24.7,06.7,04.4,0660.5,31.0
2021-07-15T07:03:00Z,00000200,60000000,,,,,,,-000.18,-000.08,0000.07,17.9,24.7,06.7,04.4,0660.5,31.0
2021-07-15T07:04:00Z,00000200,40000000,0000.34,0000.30,0000.22,-000.46,-000.18,-000.09,0000.33,0000.07,0000.01,17.9,24.5,06.8,04.5,0661.5,31.0
2021-07-15T07:05:00Z,00000200,00000000,0000.37,0000.45,-000.05,-000.11,-000.27,0000.22,0000.10,0000.15,0000.14,18.0,24.4,06.8,04.6,0661.5,31.0
2021-07-15T07:06:00Z,00000200,00000000,0000.35,0000.43,-000.08,-000.31,-000.13,-000.24,0000.12,-000.04,0000.01,18.0,24.4,06.9,04.6,0661.5,31.0
2021-07-15T07:07:00Z,00000200,00000000,0000.44,0000.49,0000.18,0000.01,-000.12,0000.01,-000.04,0000.32,0000.45,18.1,24.4,06.9,04.7,0661.5,31.0
2021-07-15T07:08:00Z,00000200,00000000,-000.20,0000.58,-000.05,-000.11,-000.33,0000.17,0000.09,-000.17,-000.07,18.1,24.4,07.0,04.8,0661.5,31.0
2021-07-15T07:09:00Z,00000200,00000000,0000.13,0000.72,0000.16,-000.32,-000.13,-000.13,-000.01,0000.49,-000.08,18.2,24.5,06.9,04.7,0661.6,31.0
2021-07-15T07:10:00Z,00000200,00000000,0000.69,0000.59,-000.07,-000.47,-000.24,-000.04,-000.26,-000.06,-000.18,18.2,24.5,06.9,04.7,0661.6,31.0
2021-07-15T07:11:00Z,00000200,00000000,0000.25,0000.42,0000.19,-000.09,-000.06,0000.02,-000.01,-000.25,0000.02,18.2,24.5,07.0,04.7,0661.5,31.0
2021-07-15T07:12:00Z,00000200,00000000,0000.36,0000.34,0000.32,-000.38,-000.09,0000.19,0000.05,-000.08,-000.21,18.2,24.5,06.9,04.7,0661.6,31.0
2021-07-15T07:13:00Z,00000200,00000000,-000.14,0000.40,0000.48,0000.28,-000.02,0000.16,0000.04,0000.25,0000.16,18.1,24.4,06.9,04.7,0661.6,31.0
2021-07-15T07:14:00Z,00000200,00000000,0000.77,0000.10,-000.05,-000.63,0000.00,-000.04,-000.02,-000.05,-000.01,18.1,24.4,07.0,04.7,0661.5,31.0
2021-07-15T07:15:00Z,00000200,00000000,0000.22,0000.50,0000.10,0000.09,-000.02,-000.18,-000.01,-000.44,0000.19,18.1,24.4,07.0,04.8,0661.5,31.0
2021-07-15T07:16:00Z,00000200,00000000,0000.09,0000.34,0000.18,0000.25,-000.27,-000.10,-000.01,0000.27,-000.12,18.1,24.4,06.9,04.7,0661.5,31.0
2021-07-15T07:17:00Z,00000200,00000000,0000.49,0000.40,-000.05,-000.19,-000.54,0000.11,0000.14,-000.04,0000.27,18.0,24.4,07.0,04.8,0661.5,31.0
2021-07-15T07:18:00Z,00000200,00000000,0000.51,0000.32,0000.45,0000.15,-000.08,-000.04,0000.25,0000.32,0000.15,18.0,24.4,07.0,04.7,0661.5,31.0
2021-07-15T07:19:00Z,00000200,00000000,0000.06,0000.41,0000.47,-000.41,-000.07,0000.30,-000.05,-000.15,-000.27,18.0,24.4,07.0,04.8,0661.5,31.0
2021-07-15T07:20:00Z,00000200,00000000,0000.13,0000.40,0000.22,-000.41,0000.15,-000.22,-000.34,0000.16,0000.21,18.0,24.3,07.1,04.8,0661.5,31.0
2021-07-15T07:21:00Z,00000200,00000000,0000.84,0000.35,0000.13,-000.34,-000.02,0000.22,0000.56,0000.17,0000.06,18.0,24.3,07.1,04.8,0661.5,31.0
2021-07-15T07:22:00Z,00000200,00000000,0000.45,0000.45,-000.00,0000.27,-000.04,-000.55,0000.01,0000.01,0000.21,18.1,24.3,07.0,04.8,0661.5,31.0
2021-07-15T07:23:00Z,00000200,00000000,0000.77,0000.75,0000.33,0000.21,-000.12,-000.09,0000.16,-000.08,0000.14,18.1,24.4,07.1,04.9,0661.5,31.0
2021-07-15T07:24:00Z,00000200,00000000,0000.10,0000.45,0000.14,0000.10,-000.22,-000.03,-000.15,0000.21,-000.16,18.2,24.4,07.1,04.8,0661.5,31.0
2021-07-15T07:25:00Z,00000200,00000000,0000.39,0000.24,0000.19,0000.45,-000.16,0000.04,0000.02,-000.10,0000.29,18.2,24.4,07.2,04.9,0661.5,31.0
2021-07-15T07:26:00Z,00000200,00000000,0000.32,0000.18,0000.20,-000.30,0000.14,-000.06,0000.27,0000.15,-000.46,18.2,24.4,07.2,04.9,0661.5,31.0
2021-07-15T07:27:00Z,00000200,00000000,0000.73,0000.35,-000.20,0000.15,0000.13,-000.19,-000.28,-000.17,-000.01,18.2,24.4,07.2,04.9,0661.6,31.0
2021-07-15T07:28:00Z,00000200,00000000,0000.91,0000.41,0000.35,-000.23,-000.00,-000.11,0000.05,0000.16,0000.21,18.2,24.4,07.3,05.0,0661.6,31.0
2021-07-15T07:29:00Z,00000200,00000000,0000.65,0000.18,0000.33,0000.26,-000.16,-000.02,0000.12,-000.40,-000.06,18.1,24.4,07.2,04.9,0661.6,31.0
2021-07-15T07:30:00Z,00000200,00000000,-000.43,0000.11,0000.26,0000.14,-000.10,-000.07,0000.02,0000.44,-000.08,18.1,24.4,07.4,05.0,0661.6,31.0
2021-07-15T07:31:00Z,00000200,00000000,0000.34,0000.57,0000.08,-000.29,-000.04,0000.04,0000.04,0000.02,0000.24,18.1,24.4,07.4,05.0,0661.6,31.0
2021-07-15T07:32:00Z,00000200,00000000,-000.04,0000.69,0000.27,-000.47,-000.08,0000.14,0000.27,-000.06,-000.07,18.1,24.4,07.5,05.1,0661.6,31.0
2021-07-15T07:33:00Z,00000200,00000000,0000.30,0000.60,0000.28,0000.34,-000.04,-000.13,-000.42,0000.19,0000.33,18.1,24.4,07.4,05.0,0661.6,31.0
2021-07-15T07:34:00Z,00000200,00000000,0000.83,0000.71,0000.13,0000.06,0000.04,0000.23,0000.31,-000.03,-000.30,18.1,24.4,07.6,05.1,0661.6,31.0
2021-07-15T07:35:00Z,00000200,00000000,0000.70,0000.75,0000.37,-000.12,0000.17,0000.03,0000.23,0000.21,0000.13,18.1,24.3,07.6,05.1,0661.6,31.0
2021-07-15T07:36:00Z,00000200,00000000,0000.51,0000.69,0000.63,0000.11,0000.13,0000.27,0000.08,0000.02,0000.15,18.1,24.3,07.5,05.1,0661.6,31.0
2021-07-15T07:37:00Z,00000200,00000000,0000.57,0000.51,0000.61,-000.43,-000.05,-000.06,-000.06,0000.26,0000.03,18.2,24.3,07.5,05.1,0661.6,31.0
2021-07-15T07:38:00Z,00000200,00000000,0000.88,0000.45,0000.31,-000.15,-000.02,0000.33,0000.18,0000.02,0000.41,18.2,24.4,07.6,05.2,0661.6,31.0
2021-07-15T07:39:00Z,00000200,00000000,0000.53,0000.58,0000.33,0000.32,-000.26,-000.04,0000.11,-000.14,-000.16,18.2,24.4,07.7,05.3,0661.6,31.0
2021-07-15T07:40:00Z,00000200,00000000,0000.61,0000.91,0000.19,-000.15,-000.14,-000.06,0000.10,0000.20,0000.08,18.2,24.4,07.7,05.3,0661.6,31.0
2021-07-15T07:41:00Z,00000200,00000000,0000.37,0000.29,0000.26,0000.19,-000.15,-000.17,-000.24,-000.07,0000.18,18.2,24.4,07.8,05.3,0661.6,31.0
2021-07-15T07:42:00Z,00000200,00000000,0000.96,0000.40,0000.45,-000.24,-000.12,0000.03,0000.16,0000.29,-000.57,18.2,24.4,07.8,05.3,0661.6,31.0
2021-07-15T07:43:00Z,00000200,00000000,0000.78,0001.03,0000.46,0000.63,-000.13,0000.10,0000.23,-000.33,0000.31,18.2,24.4,07.8,05.4,0661.6,31.0
2021-07-15T07:44:00Z,00000200,00000000,0000.23,0000.29,0000.50,0000.43,-000.25,-000.15,-000.24,0000.30,0000.25,18.2,24.4,07.8,05.3,0661.6,31.0
2021-07-15T07:45:00Z,00000200,00000000,0000.88,0000.60,0000.43,-000.06,0000.29,-000.11,-000.05,-000.19,-000.12,18.2,24.4,07.8,05.3,0661.6,31.0
2021-07-15T07:46:00Z,00000200,00000000,0000.35,0000.51,0000.22,-000.36,-000.38,0000.01,-000.14,0000.24,-000.04,18.1,24.4,07.9,05.4,0661.6,31.0
2021-07-15T07:47:00Z,00000200,00000000,0001.12,0000.48,0000.57,0000.03,-000.04,0000.23,0000.39,0000.20,0000.28,18.1,24.4,07.8,05.3,0661.6,31.0
2021-07-15T07:48:00Z,00000200,00000000,0000.39,0000.38,-000.09,0000.06,-000.00,-000.18,-000.00,-000.40,-000.23,18.2,24.4,08.0,05.5,0661.5,31.0
2021-07-15T07:49:00Z,00000200,00000000,0000.33,0000.49,0000.26,-000.23,-000.30,-000.12,0000.15,0000.35,0000.47,18.2,24.4,08.0,05.5,0661.5,31.0
2021-07-15T07:50:00Z,00000200,00000000,0000.02,0000.49,0000.22,-000.11,-000.34,0000.23,0000.14,-000.30,-000.24,18.1,24.4,08.0,05.5,0661.5,31.0
2021-07-15T07:51:00Z,00000200,00000000,0000.43,0000.38,0000.42,-000.07,-000.25,0000.18,-000.06,0000.32,0000.01,18.1,24.4,08.1,05.5,0661.5,31.0
2021-07-15T07:52:00Z,00000200,00000000,0001.25,0000.13,0000.28,-000.15,-000.06,0000.11,-000.11,0000.25,0000.49,18.1,24.4,08.0,05.5,0661.5,31.0
2021-07-15T07:53:00Z,00000200,00000000,0000.69,0000.58,0000.15,-000.13,0000.02,-000.11,-000.11,-000.01,-000.56,18.1,24.3,08.0,05.4,0661.5,31.0
2021-07-15T07:54:00Z,00000200,00000000,0000.16,0000.20,0000.29,-000.19,0000.14,-000.02,0000.36,-000.37,-000.06,18.1,24.4,07.9,05.4,0661.5,31.0
2021-07-15T07:55:00Z,00000200,00000000,-000.34,0000.41,0000.20,-000.34,-000.11,0000.01,-000.04,-000.01,0000.39,18.1,24.4,07.9,05.4,0661.5,31.0
2021-07-15T07:56:00Z,00000200,00000000,0000.28,0000.45,-000.05,-000.00,-000.23,0000.04,-000.31,-000.05,-000.43,18.1,24.3,08.0,05.4,0661.6,31.0
2021-07-15T07:57:00Z,00000200,40000000,,,,,,,-000.09,-000.20,0000.13,18.1,24.4,07.4,05.0,0661.5,31.0
2021-07-15T07:58:00Z,00000200,60000000,,,,,,,0000.06,0000.11,-000.21,17.9,24.5,07.8,05.2,0660.5,31.0
2021-07-15T07:59:00Z,00000200,20000000,,,,,,,0000.01,0000.04,0000.24,17.9,24.6,07.8,05.2,0660.5,31.0
